Theta_e
333 331 329 330 328 327 329 329 328 327 325 325 324 323 322 321 320 319 318 317 316 317 319 323 326 326 326 325 324 326 326 325 323 323 322 320 318 319 319 319 318 317 317 318 318 318 318 317 317 317 316 317 318 318 319 319 320 322 323 325 326 326 326 327 325 323 326 326 324 325 326 324 323 325 327 328 330 330 330 330 330 330 330 330 331
333 332 331 331 330 328 328 328 326 325 324 323 323 321 320 319 318 318 317 315 312 312 313 316 321 324 324 323 324 324 324 325 324 321 318 316 316 318 318 318 317 316 316 316 317 317 317 317 317 317 316 316 318 317 317 318 318 319 320 324 326 325 326 326 323 322 325 326 326 328 329 328 327 328 329 329 329 329 329 330 330 330 330 330 330
333 333 332 331 331 330 329 328 327 325 323 321 320 318 316 316 315 315 314 311 308 308 310 312 314 315 315 316 318 319 317 317 318 317 316 315 314 315 316 317 318 318 318 317 317 316 317 317 317 317 317 317 318 318 318 317 318 318 318 320 323 325 325 324 322 322 325 326 325 326 327 328 328 329 329 329 329 329 329 330 330 330 330 329 328
333 333 333 332 331 330 330 329 328 326 323 319 317 315 314 312 311 310 309 308 307 308 310 313 313 312 313 312 312 314 313 315 319 319 318 317 315 313 313 316 317 319 321 320 319 317 316 317 317 317 318 318 319 318 318 318 317 318 318 318 320 324 326 325 323 322 323 325 325 325 325 325 326 328 329 329 328 328 329 329 328 328 328 327 326
333 333 333 332 332 330 328 328 327 326 325 321 316 314 312 310 309 310 310 308 308 308 311 313 313 313 314 313 313 315 317 322 325 323 321 320 318 314 313 315 316 317 321 322 321 319 317 317 317 318 318 318 318 319 319 318 317 317 317 318 319 322 324 325 324 321 321 322 324 325 326 325 325 327 328 328 328 327 327 327 326 326 325 325 325
333 333 333 333 332 330 327 326 326 326 325 324 319 315 313 311 312 314 314 313 310 309 311 312 313 314 314 315 319 323 324 324 322 321 321 320 318 318 318 318 318 318 320 321 321 319 318 317 317 318 319 317 317 319 319 319 319 318 318 319 319 320 322 325 325 323 321 320 322 324 326 327 327 327 328 327 327 326 325 325 324 324 324 323 323
333 333 333 333 332 331 329 327 326 326 325 325 323 319 315 312 313 315 316 316 314 310 310 312 314 314 315 315 317 321 323 318 312 313 317 317 318 320 321 320 321 321 320 321 321 320 319 319 318 319 321 319 319 320 319 321 322 319 319 319 320 321 323 325 325 324 324 324 324 325 325 326 326 326 327 326 326 325 324 323 323 323 323 323 322
334 333 333 334 332 331 331 329 326 325 325 325 325 322 318 314 313 316 316 317 317 313 311 313 314 314 316 315 313 316 317 312 309 310 312 316 317 320 322 321 321 321 319 320 320 320 319 320 320 320 321 320 320 322 321 322 323 321 320 320 321 323 323 324 325 325 325 326 326 326 325 326 325 324 326 326 326 325 323 323 323 322 322 322 321
333 333 333 334 333 331 332 332 328 326 326 325 326 324 320 316 313 316 318 318 319 316 312 312 314 314 315 316 314 314 312 311 312 312 311 315 317 317 320 321 321 321 319 316 317 319 319 318 320 320 319 318 319 321 321 321 322 322 322 320 320 323 323 324 325 325 325 325 326 327 327 327 326 324 325 326 326 325 323 323 322 322 322 321 320
331 332 333 334 334 330 330 333 331 329 327 325 326 326 324 319 314 315 320 320 319 317 314 311 311 313 314 316 316 314 312 311 313 312 310 316 320 318 318 320 321 321 320 317 315 318 318 317 318 319 317 315 316 318 320 321 321 321 321 319 318 320 322 323 324 325 324 324 325 327 326 327 326 325 326 326 326 325 323 323 322 322 321 320 319
331 331 332 334 333 330 329 332 332 331 329 327 326 326 325 324 319 316 318 319 318 317 317 312 310 311 312 314 316 314 313 311 310 311 312 318 323 321 320 321 322 321 320 320 317 316 317 316 316 318 317 315 315 318 320 321 321 321 321 318 316 316 317 320 322 324 323 323 324 326 326 326 326 325 325 326 326 324 323 322 322 322 321 319 318
331 331 331 333 333 330 328 331 332 332 331 330 328 326 325 325 323 321 318 317 316 318 319 315 310 310 311 313 314 315 314 312 314 317 316 321 324 323 322 322 322 321 320 320 318 315 315 317 317 319 318 315 316 319 320 321 320 321 321 318 315 315 314 316 319 320 322 323 324 324 324 324 324 325 325 326 325 323 322 323 322 321 320 318 318
331 332 332 333 332 331 330 330 331 331 331 331 330 328 326 324 324 324 323 321 319 319 321 320 314 309 309 311 313 314 314 312 317 320 317 320 323 322 323 323 322 321 320 319 318 315 316 317 317 317 317 316 318 320 320 320 320 320 320 318 315 313 313 316 318 318 320 323 324 323 323 323 322 324 325 326 325 324 323 323 322 321 319 318 317
331 332 333 333 333 332 331 330 330 330 330 330 330 330 328 326 324 325 326 325 323 322 323 323 319 312 308 310 311 313 314 312 315 316 314 315 318 318 321 322 321 320 319 317 316 316 318 318 317 316 317 317 318 319 319 319 319 319 319 318 315 313 316 318 319 319 319 321 322 321 321 320 321 322 324 325 325 324 323 323 322 321 319 318 317
331 331 332 332 332 332 331 329 330 330 329 329 329 330 330 329 327 326 326 326 325 324 324 324 322 316 310 309 310 311 312 312 312 312 310 311 313 315 315 316 317 317 315 312 312 316 318 318 318 317 317 317 317 318 318 317 318 317 318 319 315 314 318 319 319 320 319 319 319 319 319 319 319 321 324 325 324 324 324 322 321 321 320 318 317
330 331 331 330 329 329 329 328 328 329 328 328 329 329 329 329 328 326 326 326 325 325 325 325 324 319 313 310 309 310 311 312 313 312 311 310 311 314 313 313 313 312 311 309 311 317 318 318 318 316 316 317 316 317 317 317 317 316 317 317 314 314 318 318 318 319 319 319 319 318 319 318 316 318 322 324 322 322 323 323 321 321 320 318 316
330 330 331 330 328 326 326 327 327 327 328 327 327 328 328 327 327 326 326 326 326 326 326 326 325 322 316 311 309 309 309 310 312 312 311 310 311 313 312 312 311 310 310 309 311 317 319 318 317 316 316 316 316 316 316 316 316 315 314 314 311 313 317 317 317 318 318 319 319 318 319 317 314 316 320 323 321 318 319 322 321 320 320 318 318
329 330 329 329 328 326 325 326 327 327 327 327 327 328 328 326 326 326 326 326 327 327 327 327 327 324 317 312 310 309 309 310 311 312 311 309 311 312 312 312 310 309 309 308 311 317 318 317 317 316 316 316 316 316 315 313 312 311 311 310 310 312 314 315 315 315 316 317 317 316 317 316 313 313 318 321 322 319 318 320 320 320 320 319 319
330 330 329 328 328 327 325 325 326 326 326 327 327 327 327 326 326 326 326 326 327 328 328 328 328 326 320 314 313 311 309 310 310 311 310 310 311 312 312 312 311 310 310 309 313 317 318 318 318 317 316 316 315 314 313 311 309 309 310 311 310 310 312 312 311 312 313 313 314 313 314 314 312 313 314 318 321 322 321 321 321 321 321 320 320
332 331 331 329 326 326 325 323 325 326 325 325 326 325 326 325 325 325 325 326 327 327 328 328 328 327 323 318 319 317 315 313 312 311 311 311 313 314 313 312 311 310 309 310 315 317 318 318 317 316 316 316 315 312 309 308 306 307 310 310 309 309 310 310 310 309 309 310 312 312 312 311 312 313 313 314 317 320 321 322 321 321 320 320 320
331 330 330 328 324 323 324 323 325 326 325 324 324 323 324 324 323 324 324 324 325 325 327 327 327 327 325 323 323 324 323 320 315 313 312 312 313 313 313 313 312 311 309 311 316 317 318 318 317 317 316 315 315 311 305 305 306 305 307 308 308 308 309 309 308 308 307 307 310 311 310 309 309 311 311 311 313 316 319 321 321 320 319 319 319
331 329 329 329 325 324 325 324 324 325 325 325 324 323 323 322 323 323 323 323 324 325 325 326 327 327 326 326 326 327 327 325 320 314 312 313 313 312 312 313 313 311 309 311 316 317 317 317 317 317 316 315 314 310 304 303 304 302 303 305 305 305 305 305 305 305 305 304 306 308 308 306 305 306 307 308 309 312 317 319 319 319 319 318 318
329 327 326 325 323 324 325 325 324 325 324 324 324 323 323 322 323 325 325 324 325 326 325 325 326 326 326 328 328 328 328 326 323 317 312 312 315 313 311 314 314 311 309 311 314 315 317 317 317 317 316 314 313 308 303 301 301 300 300 300 301 301 301 301 302 302 302 303 304 306 304 302 302 303 303 304 304 307 314 318 318 318 318 318 318
327 325 323 323 323 325 326 326 327 327 326 323 322 322 323 322 322 325 326 324 325 326 325 324 324 325 326 328 328 326 326 325 323 320 315 313 315 314 311 313 316 313 310 309 309 313 316 317 316 316 315 314 311 307 303 300 300 300 300 299 300 300 300 300 300 299 300 301 303 304 302 300 303 304 304 306 306 308 314 317 317 317 317 318 317
327 325 325 325 326 326 326 326 327 328 328 326 324 323 323 323 322 323 325 323 323 323 323 323 322 324 326 326 325 325 325 325 322 322 321 317 315 313 310 314 317 314 310 307 305 310 315 315 315 315 315 313 311 308 304 301 300 300 300 300 300 300 299 299 299 299 299 300 300 301 300 301 304 306 308 311 313 313 316 316 316 316 316 316 315
326 327 327 327 326 326 326 326 326 327 328 329 328 327 326 326 324 323 323 323 323 322 323 323 322 323 325 324 323 324 325 325 323 322 323 320 316 312 310 314 317 314 310 307 305 308 312 314 315 314 314 313 310 308 304 300 300 300 300 300 299 299 299 299 299 299 299 299 298 299 299 299 302 305 307 312 315 315 315 315 315 315 314 314 314
326 326 326 326 326 326 326 325 324 325 326 328 329 329 329 328 327 325 323 323 323 323 323 323 322 323 323 322 323 323 324 326 325 323 323 320 315 312 313 315 316 314 311 308 307 307 310 314 315 314 313 312 308 306 303 300 300 300 300 300 299 299 299 299 299 299 298 298 298 298 298 298 299 301 304 310 313 313 313 313 313 314 313 313 313
325 325 325 325 325 325 325 325 324 324 325 326 328 329 329 328 328 327 325 323 324 324 323 323 323 323 322 322 323 323 323 325 326 325 323 320 315 313 314 315 314 313 312 310 309 308 307 310 313 312 311 308 304 303 303 300 300 300 299 300 299 299 299 298 298 298 298 298 298 297 297 297 298 298 301 305 308 310 310 311 311 311 312 311 311
324 324 324 324 324 325 325 325 324 324 324 325 326 328 329 329 328 327 326 325 324 324 324 324 323 323 323 323 324 325 324 325 326 326 324 321 318 316 316 315 313 313 313 311 310 307 306 308 309 308 307 305 302 303 302 300 299 300 299 299 299 298 298 298 298 298 297 297 297 297 297 297 297 298 299 301 303 305 307 309 309 309 309 309 308
324 324 323 323 323 324 323 324 324 323 323 324 324 327 328 328 329 329 328 328 327 325 325 326 326 326 325 324 325 327 326 326 327 327 325 323 319 318 317 314 313 313 313 312 310 306 305 307 308 306 304 303 302 302 301 300 300 300 299 299 299 298 298 298 298 297 297 297 297 297 297 297 297 297 298 299 300 301 302 303 304 305 306 307 307
322 322 322 322 322 322 323 323 323 322 322 321 321 324 325 325 326 327 328 328 328 328 328 328 327 327 327 327 327 328 327 328 328 327 326 324 321 319 317 313 312 313 313 312 311 307 305 305 307 306 303 302 302 302 301 300 300 299 299 299 299 298 298 297 297 297 297 297 297 296 296 296 296 297 298 298 299 299 300 299 300 300 300 302 305
322 322 321 321 321 321 321 321 320 321 321 320 319 322 322 320 321 323 325 325 327 329 329 328 327 328 329 328 328 328 328 328 329 328 326 325 323 322 319 314 311 311 312 312 311 309 306 303 304 305 303 302 302 302 300 300 300 299 299 299 298 298 298 297 297 297 297 296 296 296 296 296 296 296 296 297 297 297 298 297 297 297 296 296 298
322 322 322 321 321 321 320 319 319 319 319 320 321 320 318 317 318 320 321 322 325 327 328 328 329 329 329 329 329 329 328 328 329 328 328 326 324 323 321 317 313 310 310 311 311 311 308 304 302 303 303 303 302 302 301 300 300 300 299 299 298 298 298 298 297 297 297 296 296 296 295 295 295 295 295 296 295 295 296 295 295 295 295 295 295
322 322 322 321 321 321 320 320 319 319 318 320 320 318 317 318 319 320 322 321 322 323 325 327 328 329 330 329 327 326 328 328 328 328 328 327 325 323 322 321 317 313 311 310 311 312 311 307 303 301 302 303 303 302 301 300 300 300 299 299 298 298 298 298 297 297 296 296 296 296 295 295 295 295 295 295 295 295 295 295 295 295 295 295 295
321 321 320 319 318 319 319 320 320 319 319 319 318 317 320 320 318 319 321 322 323 323 324 325 325 327 328 328 326 325 327 328 327 327 328 328 326 325 324 323 321 318 314 311 311 311 312 310 306 302 302 303 303 302 301 301 300 300 300 299 298 298 298 298 297 297 296 296 296 296 295 295 295 295 295 295 295 295 295 295 295 295 295 295 295
319 319 318 318 318 318 318 318 319 319 319 319 318 317 319 320 318 317 318 322 324 323 323 324 324 324 326 327 327 327 327 328 327 327 327 327 326 326 325 324 324 322 319 315 313 312 312 312 310 305 302 302 302 302 302 301 300 300 300 299 298 298 298 297 298 297 296 296 296 296 295 295 295 295 295 295 295 295 295 295 294 294 294 295 295
319 318 318 317 317 318 317 317 318 319 318 318 317 317 318 319 320 318 318 320 322 321 320 322 323 323 324 325 325 326 326 326 327 327 327 326 326 326 325 325 324 324 322 319 316 313 312 312 312 309 305 302 302 302 302 302 301 300 300 300 299 299 299 297 297 297 297 296 296 296 295 295 295 295 294 295 295 295 294 294 294 294 294 294 294
319 318 318 318 317 317 316 317 318 319 317 315 315 316 316 317 317 318 318 318 318 319 319 319 318 319 320 322 323 325 325 325 325 324 325 326 326 325 325 324 323 324 323 322 320 317 314 313 313 312 309 304 302 302 302 302 301 300 300 300 300 301 300 298 297 297 297 296 296 296 295 295 295 295 294 294 295 295 294 294 294 293 294 294 294
318 318 317 316 315 315 315 318 319 317 315 314 314 314 314 315 314 314 315 315 315 316 317 317 316 315 315 316 317 319 322 325 325 324 322 323 324 323 323 322 322 323 323 323 322 320 317 316 315 314 313 308 304 302 302 302 302 301 300 300 300 301 301 299 298 298 297 296 296 296 295 295 295 294 294 294 294 295 294 293 294 295 294 293 293
317 316 315 314 314 315 317 318 317 315 314 314 314 314 313 313 313 312 313 313 312 313 313 315 315 315 314 314 314 313 315 319 323 324 324 323 323 322 322 322 322 323 323 323 322 321 319 318 316 316 315 312 308 303 301 302 302 301 301 300 300 301 301 300 300 299 298 297 297 296 295 295 295 294 294 294 294 295 294 294 296 298 297 294 294
315 314 313 313 315 316 317 317 316 315 315 315 315 316 315 315 314 314 314 313 313 312 311 313 314 314 315 315 313 313 313 313 316 320 323 325 324 322 322 322 322 323 322 322 322 321 320 319 318 317 316 315 312 307 303 302 302 301 301 300 300 301 301 301 301 301 301 300 298 297 296 295 294 294 294 294 294 294 294 295 297 298 297 295 294
314 314 313 314 315 316 316 316 315 315 315 316 316 316 315 315 315 315 315 315 314 314 312 312 313 314 314 314 313 313 313 313 314 315 319 323 325 323 322 322 322 323 323 322 322 322 321 319 318 318 318 317 315 312 307 303 302 302 301 300 300 300 300 302 302 302 303 303 301 298 297 296 295 294 294 294 294 294 294 294 295 295 294 293 294
313 313 313 313 314 314 314 314 314 314 314 314 314 314 314 313 313 313 314 314 314 314 314 313 313 313 313 313 313 313 312 312 314 314 315 320 324 324 322 321 321 322 322 322 321 321 321 320 319 318 318 318 317 315 311 306 302 301 302 301 300 300 299 300 302 303 304 304 303 300 298 296 296 295 294 294 293 293 294 294 293 294 293 293 295
311 310 311 311 312 312 312 312 311 311 310 310 311 311 311 311 311 311 312 312 312 313 313 313 313 312 312 312 312 313 313 312 314 315 315 318 322 324 323 322 321 321 321 321 321 321 321 320 320 319 318 318 318 317 315 311 305 302 301 301 301 300 299 299 301 303 304 305 304 300 298 297 297 295 294 294 293 293 293 293 293 294 293 292 296
309 308 308 309 310 310 310 310 310 309 308 309 309 308 308 308 308 308 308 308 309 310 310 311 311 311 312 312 311 312 312 313 314 315 315 317 320 323 323 322 321 321 320 320 320 320 320 320 320 320 319 318 318 318 317 316 311 305 302 301 301 301 300 299 299 302 304 305 303 299 297 298 297 296 295 294 293 293 293 293 293 293 293 293 296
308 307 306 307 308 308 308 308 308 307 307 308 309 308 308 307 307 307 307 306 306 306 307 308 309 310 310 310 310 310 311 311 312 313 315 317 319 320 323 323 321 321 320 320 319 320 320 320 320 320 320 319 318 318 318 318 316 310 305 302 301 301 300 299 299 300 301 302 300 297 297 298 297 297 296 295 294 293 293 293 293 292 293 295 298
307 306 306 306 307 307 307 307 307 306 306 307 308 308 309 308 308 307 307 306 306 305 305 307 309 310 310 310 309 309 309 311 312 313 315 318 319 320 322 322 322 321 320 320 319 319 319 319 319 320 319 318 318 318 318 318 318 315 310 305 301 301 301 300 299 298 298 298 297 296 297 298 298 297 297 295 294 294 293 293 293 292 293 296 299
306 306 306 306 306 306 306 306 306 306 305 306 306 306 307 308 308 307 307 306 305 305 305 308 309 310 311 309 307 308 310 311 312 313 314 316 318 319 321 322 322 321 320 320 319 319 319 319 319 319 318 318 318 318 318 318 318 317 315 310 305 301 301 301 300 299 298 297 297 297 297 297 298 298 297 295 295 294 293 293 293 292 292 295 297
306 306 306 306 305 305 304 305 306 306 305 305 305 305 305 306 306 307 306 306 305 305 306 308 308 309 310 308 306 308 310 311 311 312 313 314 314 314 316 318 320 320 320 319 320 320 319 319 319 319 318 318 318 318 318 318 317 317 317 315 311 305 302 301 301 300 299 298 297 297 297 297 298 298 298 297 295 295 294 294 294 294 295 296 295
305 305 305 304 304 304 303 304 305 305 305 306 305 305 305 305 306 306 306 305 305 305 306 308 308 308 309 308 307 307 309 309 310 311 312 312 312 311 311 312 315 317 318 319 319 319 320 320 320 319 319 319 318 318 318 318 318 318 317 317 316 312 308 304 301 300 300 299 298 297 297 297 298 298 298 298 297 297 297 296 295 294 296 297 296
304 304 304 303 302 302 302 302 303 304 304 304 303 304 304 305 305 305 306 306 305 305 306 307 307 307 308 308 307 307 308 308 309 310 310 311 312 312 312 311 311 313 315 317 318 318 318 319 320 320 320 319 318 318 318 319 319 319 318 317 317 316 314 310 306 303 300 300 299 298 299 299 298 298 299 299 299 298 298 298 297 295 295 295 295
Wind_Speed
7 8 8 8 8 8 7 6 5 5 7 9 10 10 10 9 7 6 5 6 6 6 6 6 5 5 6 6 6 7 7 8 10 10 9 8 8 7 7 6 6 6 7 7 7 7 7 7 7 6 6 6 5 5 5 4 3 3 2 2 2 2 2 3 2 1 3 4 3 2 2 2 2 1 1 1 1 2 3 4 6 5 3 2 2
6 7 8 8 8 9 8 6 4 4 6 8 9 10 9 8 7 5 4 5 6 6 6 7 6 4 4 4 5 6 6 7 8 9 10 10 8 7 6 5 5 5 5 6 6 6 6 6 6 6 6 5 6 6 6 5 4 4 3 3 3 3 3 4 2 1 4 5 4 3 2 1 1 1 0 1 2 3 3 3 3 2 1 2 3
6 7 8 8 9 9 9 7 6 5 5 7 8 9 8 8 6 5 5 5 5 6 7 7 6 5 5 5 6 7 8 8 9 10 11 11 10 8 6 5 5 5 5 5 5 5 6 6 6 5 5 5 5 6 6 5 5 4 4 3 2 2 3 3 3 3 4 4 5 6 5 4 2 2 1 2 2 2 2 1 1 2 2 2 4
7 8 8 9 10 11 10 9 8 6 6 6 7 7 8 7 6 6 6 6 5 5 6 5 5 6 6 7 9 9 9 10 10 9 10 10 10 9 8 7 7 6 6 6 5 4 4 4 5 5 5 5 5 5 5 5 5 5 5 4 3 3 2 3 3 3 4 4 4 6 7 7 4 5 5 5 5 4 4 4 5 5 5 5 5
8 8 9 10 11 11 11 10 10 8 7 6 6 6 7 8 7 7 7 5 5 5 4 4 5 6 6 8 10 10 9 8 7 7 8 8 8 9 10 10 9 8 7 6 5 3 3 3 3 4 4 4 4 5 5 5 5 5 4 4 3 3 3 3 3 2 3 4 4 5 5 6 4 4 6 4 5 4 4 5 6 7 6 6 6
8 8 9 10 11 11 11 10 11 11 9 7 6 6 7 8 7 6 6 5 4 4 3 3 4 5 6 7 7 6 5 5 4 5 6 6 7 8 8 9 9 9 8 7 6 4 2 2 2 3 4 4 4 4 4 5 5 4 4 4 4 3 3 3 3 3 2 3 4 4 3 4 4 1 3 4 6 5 4 6 6 6 6 6 7
8 9 9 10 11 12 11 11 12 12 11 9 8 7 6 7 8 7 5 3 3 4 3 2 3 3 5 5 6 5 4 4 5 6 6 6 7 6 6 8 9 9 9 8 7 5 3 3 3 3 5 4 4 4 4 5 5 5 4 4 4 4 3 3 3 3 2 2 2 3 3 3 4 3 3 3 7 7 6 6 5 5 5 6 8
7 8 9 9 10 11 11 11 12 13 12 10 9 7 7 7 8 8 8 5 1 2 3 3 2 2 3 5 6 6 4 5 6 6 6 6 7 6 6 7 7 7 8 8 7 6 4 3 3 3 4 4 5 4 4 5 5 5 5 4 4 4 4 3 3 3 2 2 2 2 3 3 4 3 4 3 5 9 8 6 5 4 3 5 8
6 6 7 8 9 10 10 11 11 13 13 12 9 8 8 8 9 9 10 9 6 2 2 3 2 1 1 3 6 6 6 6 5 5 6 6 6 7 6 5 6 6 7 7 7 7 5 4 3 3 3 4 4 4 4 5 5 6 6 5 5 4 3 3 3 3 3 3 2 3 3 2 3 3 2 3 4 8 8 6 6 5 4 6 7
6 6 6 6 8 9 10 10 11 13 13 12 11 9 9 9 9 8 8 10 9 5 3 3 3 2 1 2 4 6 6 6 4 4 5 4 4 5 6 5 5 5 6 6 7 6 4 3 3 2 3 3 4 4 4 5 5 5 6 6 6 4 3 3 3 3 3 3 4 3 3 3 3 3 2 3 4 6 8 7 6 6 6 8 9
6 6 6 6 8 9 9 9 10 12 12 12 12 11 10 9 8 8 8 9 9 6 5 4 4 3 1 2 3 5 5 5 4 4 4 3 2 3 5 4 3 4 5 5 6 4 2 2 1 1 2 2 3 3 3 4 4 4 5 5 5 5 4 3 3 3 3 4 4 4 3 3 2 3 3 3 3 3 8 10 9 7 7 9 11
5 5 6 7 9 10 10 9 9 10 12 12 13 13 12 11 10 9 9 10 9 7 6 5 5 4 2 3 3 4 5 4 3 2 2 2 1 1 3 3 3 4 4 4 5 4 2 1 1 1 1 2 2 2 2 2 2 3 5 5 4 4 3 2 2 2 2 3 3 3 3 3 2 3 3 3 3 3 7 11 11 9 9 10 11
4 4 5 7 8 9 10 10 10 10 11 12 12 12 13 14 13 11 11 10 9 8 8 7 6 5 4 4 5 4 4 4 1 1 1 0 0 1 1 2 2 3 3 3 4 4 2 2 1 0 1 2 2 1 1 2 2 2 4 5 4 4 2 3 3 2 2 2 2 2 2 3 3 3 3 2 1 3 8 11 11 8 10 11 10
4 4 5 6 7 8 9 10 10 10 10 11 11 12 12 14 14 13 12 11 11 10 10 9 7 6 6 6 6 5 5 4 2 2 2 1 1 2 1 1 1 2 3 4 4 3 2 2 1 1 1 1 1 1 1 2 2 2 3 4 5 4 3 3 3 2 2 2 1 1 2 3 3 3 4 2 0 3 8 12 11 9 10 10 9
4 4 4 5 6 7 8 10 10 10 11 11 12 12 12 13 14 13 12 12 12 12 11 10 9 8 8 9 8 7 5 4 3 4 4 2 2 3 2 2 2 2 4 5 4 2 1 1 1 1 0 1 0 1 1 2 3 2 2 3 4 4 3 3 2 2 2 2 2 2 2 3 4 4 4 2 1 2 5 9 10 11 12 10 9
3 4 4 4 5 7 8 9 10 10 11 12 12 12 12 13 13 13 13 13 13 13 12 11 11 10 10 10 9 8 7 5 5 5 4 3 3 3 3 3 2 3 4 5 3 1 1 1 1 0 1 1 1 1 1 2 3 2 1 2 3 2 3 3 2 2 1 2 2 2 2 2 3 4 3 2 1 2 4 6 8 10 11 10 10
3 3 3 4 4 5 7 8 10 11 11 12 12 13 13 13 13 13 13 14 14 14 13 12 12 12 12 11 10 9 8 7 6 5 5 4 3 3 3 3 3 3 4 4 2 1 1 1 1 0 1 1 1 1 1 2 2 2 1 1 1 1 2 2 2 2 2 2 1 1 2 1 2 4 3 2 1 1 2 5 7 7 7 9 11
3 3 2 3 3 4 5 7 9 11 12 12 12 12 13 13 14 14 14 14 14 14 14 13 13 13 12 12 10 9 8 8 8 6 5 5 4 4 3 3 4 4 4 4 1 1 2 1 1 0 1 0 0 0 2 2 2 2 1 1 2 1 2 1 2 3 3 3 2 2 2 2 2 4 3 2 1 2 2 3 4 4 4 6 8
3 3 2 2 3 3 4 5 7 9 11 12 12 12 13 14 14 15 14 14 14 14 14 13 13 13 13 12 10 9 8 8 8 7 5 5 4 4 4 4 4 3 4 3 1 2 2 2 2 1 1 1 1 1 2 3 2 1 0 1 2 2 2 1 1 2 3 4 3 3 3 2 2 3 3 2 2 2 3 3 3 4 6 6 6
2 2 2 2 3 2 2 2 4 6 7 9 10 12 13 14 15 16 16 15 15 15 15 14 14 14 13 12 10 9 8 8 9 8 6 5 5 5 6 5 4 3 3 2 1 3 3 3 3 2 2 2 1 2 2 2 2 1 2 2 3 2 1 1 0 1 2 4 4 3 2 3 2 2 1 2 2 1 3 4 4 5 6 6 6
3 4 3 3 5 4 3 1 2 4 5 6 8 9 11 13 14 16 17 17 18 18 17 16 15 15 14 14 11 9 8 8 9 8 7 6 5 6 8 7 5 3 2 1 2 4 5 4 4 3 3 2 1 2 2 2 2 1 2 3 3 3 2 1 0 0 1 2 3 3 1 2 2 1 1 1 1 1 2 3 4 4 4 5 6
5 6 5 4 5 5 4 2 0 3 4 6 7 7 9 11 13 14 16 17 18 19 18 18 17 16 15 13 11 9 9 8 8 9 9 6 5 8 11 9 6 4 2 1 4 6 6 6 5 4 4 2 1 1 1 1 1 1 1 2 3 3 3 2 2 1 1 1 2 3 1 1 0 1 1 1 1 2 1 2 4 4 4 5 6
8 9 9 9 9 8 6 5 3 1 2 4 6 7 8 9 11 13 15 16 17 18 18 19 18 18 16 12 12 13 13 12 11 11 11 10 9 12 13 10 8 5 2 2 5 7 7 7 7 5 4 3 2 2 1 1 0 1 1 2 3 3 3 3 2 2 1 1 2 2 1 0 1 1 0 1 2 3 3 2 3 3 4 5 6
12 14 15 15 14 11 10 8 6 4 5 6 7 7 8 9 11 13 15 14 13 14 15 17 18 19 17 14 17 20 18 16 16 15 15 15 13 14 14 12 9 7 4 3 5 6 8 8 7 6 5 4 3 2 1 1 0 1 1 2 2 2 3 3 3 3 3 3 3 2 1 2 3 3 3 2 2 4 4 4 4 4 4 5 5
14 16 16 15 14 12 12 11 10 8 9 11 12 12 10 11 12 14 15 13 11 11 11 13 16 18 18 18 21 23 18 17 18 17 17 16 15 15 15 13 11 8 5 4 4 6 9 8 7 7 6 5 4 2 1 1 0 1 2 2 3 3 3 4 4 4 4 4 4 4 3 4 5 4 4 5 6 6 6 5 6 6 5 6 5
15 15 15 15 15 15 15 15 14 14 13 13 14 13 12 13 13 14 17 16 14 13 13 14 16 18 19 20 22 22 19 17 16 15 15 16 15 16 16 15 13 9 6 4 5 6 8 8 7 7 7 6 5 3 1 0 1 2 2 3 3 3 4 5 5 5 5 5 5 5 4 5 6 6 7 8 9 9 8 7 8 7 7 7 6
14 15 16 16 17 17 18 18 18 18 18 18 17 14 11 12 13 14 15 16 17 17 18 18 18 19 19 19 20 20 17 17 16 14 13 14 15 17 17 16 14 10 7 5 5 7 8 9 9 9 8 7 6 4 2 1 2 2 3 3 3 3 3 4 5 5 5 5 5 5 5 5 6 7 9 11 11 11 10 9 10 9 8 7 6
15 18 19 19 19 19 19 19 20 19 19 20 20 17 13 10 10 11 10 10 13 17 20 21 21 20 19 19 20 17 15 16 16 14 13 14 16 18 18 17 15 12 8 6 7 8 8 10 11 10 9 8 6 5 3 3 3 3 3 3 3 3 3 4 4 4 4 4 4 4 5 5 5 6 8 10 11 11 9 8 8 7 6 6 6
17 19 19 18 18 19 19 19 19 20 20 21 21 19 16 12 8 7 7 6 8 14 18 19 20 19 18 18 18 15 13 15 16 15 15 16 17 18 18 18 16 13 10 7 8 8 8 10 11 11 10 8 6 5 5 5 4 4 3 3 4 4 4 4 4 4 4 4 4 4 5 5 5 6 7 8 9 10 9 8 7 6 5 5 5
18 17 17 17 18 18 19 19 20 21 21 21 22 21 19 15 10 8 7 8 8 9 11 12 12 13 13 13 13 12 12 15 17 17 16 17 18 19 19 19 17 15 12 9 8 8 9 10 10 10 9 8 6 6 6 6 5 4 4 3 3 4 5 4 4 4 4 3 4 4 5 5 6 6 7 7 7 8 8 7 7 7 6 5 5
17 18 18 18 19 19 19 19 20 21 21 22 23 22 21 19 16 13 11 9 8 7 6 5 5 7 9 9 10 11 12 15 18 18 17 17 18 20 20 19 18 17 14 11 8 8 9 10 11 11 9 8 7 7 7 7 6 5 4 3 3 4 5 5 5 4 4 4 4 5 5 5 6 6 7 7 7 7 7 6 6 7 7 7 7
17 18 18 19 20 20 20 19 20 20 20 23 24 22 22 22 20 16 13 11 9 8 5 3 3 6 8 9 9 10 12 14 16 17 17 16 17 20 22 20 19 18 16 13 10 8 8 10 11 11 10 9 8 7 7 7 7 5 4 3 3 4 5 5 6 5 5 4 4 5 5 5 6 6 6 7 7 7 7 7 6 6 6 7 8
15 16 17 18 19 20 20 20 20 20 20 21 21 22 23 24 23 19 15 12 10 9 8 6 5 6 7 8 8 10 11 13 15 16 17 17 19 22 22 20 20 19 17 15 12 10 9 10 11 12 11 10 9 8 8 8 7 6 4 4 4 4 5 5 6 6 5 5 5 5 5 5 6 6 6 6 7 7 7 6 6 5 5 5 6
16 16 17 18 18 19 20 20 18 19 19 19 20 22 22 22 23 23 19 15 12 9 8 8 7 7 6 7 8 10 12 13 15 16 17 18 21 23 22 20 20 20 18 16 15 13 10 10 11 12 12 11 10 9 8 9 8 7 5 5 4 5 5 5 6 6 6 6 6 5 6 6 6 5 5 6 6 6 6 6 5 5 5 5 5
16 17 18 21 21 21 22 20 18 18 18 18 19 21 20 18 20 23 23 20 16 13 11 11 9 8 7 8 9 11 12 14 15 16 18 19 20 22 22 21 20 19 18 17 16 14 12 10 11 12 13 13 11 10 9 9 9 8 6 6 5 5 5 6 6 6 5 5 5 5 6 6 6 5 5 6 6 6 6 5 5 5 5 5 5
14 16 18 20 20 20 21 20 19 18 18 17 17 18 18 16 17 20 22 21 19 18 17 14 12 10 9 9 9 10 12 13 14 15 17 19 21 22 22 21 21 19 18 18 18 16 14 13 12 12 14 14 13 11 11 10 10 9 8 7 6 6 6 6 6 6 5 5 5 5 5 5 5 5 5 5 6 6 6 6 6 6 6 6 5
14 16 18 18 18 19 19 19 19 18 17 17 15 15 15 15 16 17 18 18 18 20 20 19 17 15 13 11 10 10 12 12 12 12 13 16 19 22 23 23 22 20 19 18 18 18 17 15 14 13 14 15 15 13 12 11 11 10 9 9 8 7 7 7 7 6 5 5 5 5 5 5 5 5 6 6 6 7 7 7 7 7 6 6 6
14 16 16 16 17 17 17 17 16 15 16 16 14 14 14 14 15 16 16 17 19 20 19 19 20 20 18 16 14 12 12 12 11 11 13 16 18 20 22 22 21 19 18 18 18 18 19 18 17 16 14 15 16 15 13 13 12 11 11 10 9 9 9 8 8 7 6 6 5 5 6 6 5 6 6 6 7 8 8 8 8 8 7 7 6
14 13 13 14 14 14 14 14 12 11 13 13 12 13 14 14 16 17 16 17 20 21 21 20 21 22 22 21 20 18 15 12 10 10 13 17 19 19 18 18 19 21 20 19 20 21 21 21 20 18 16 16 17 17 16 15 13 13 13 12 11 11 11 10 9 8 7 7 6 6 7 6 6 6 6 7 8 9 10 10 8 7 7 8 8
13 12 11 12 13 13 13 13 12 11 12 13 13 13 13 13 15 16 17 18 20 21 23 23 22 22 22 23 23 23 22 18 12 11 12 14 16 19 19 17 18 22 22 22 23 23 23 23 22 21 19 17 18 19 18 17 15 14 14 14 13 13 13 11 11 9 8 8 7 7 7 7 6 6 6 7 8 10 11 11 9 6 7 8 8
12 11 10 11 12 13 13 12 12 12 13 14 14 13 13 13 14 15 16 17 18 19 22 24 24 23 22 22 23 24 24 23 20 15 13 13 14 15 17 18 19 21 23 24 25 25 25 24 23 23 22 20 20 20 20 19 18 16 16 15 15 15 14 13 12 11 10 9 9 8 8 8 7 7 6 7 8 9 11 12 11 9 9 10 9
13 13 13 13 13 13 13 12 13 13 13 13 14 14 14 14 15 16 16 17 17 18 19 20 22 24 24 24 24 25 25 26 24 22 17 13 14 13 12 15 19 22 24 25 26 27 26 25 24 25 24 23 23 22 20 20 21 19 17 17 16 16 15 14 14 12 11 10 10 9 9 9 8 8 7 7 8 9 11 12 12 11 10 9 8
14 14 15 14 14 14 14 14 13 14 13 13 13 13 14 14 15 16 17 18 19 20 20 19 21 22 24 25 25 25 27 27 26 25 23 15 13 13 12 13 19 24 26 26 26 25 26 27 27 26 25 25 25 24 22 21 22 21 20 18 17 17 17 16 15 14 13 12 11 11 11 10 9 9 9 8 8 8 9 10 11 10 9 9 8
14 14 14 14 14 14 14 14 13 13 13 13 12 12 12 13 14 16 17 17 18 19 21 22 22 22 23 24 25 25 26 27 26 26 26 20 13 13 14 13 17 24 26 25 23 20 22 27 29 28 26 25 25 26 24 22 22 22 22 20 18 18 18 18 17 15 13 13 13 14 12 10 10 10 10 9 9 9 9 10 10 10 9 9 8
14 14 14 13 14 14 14 14 14 14 14 14 13 13 13 14 15 16 16 17 17 18 18 20 21 22 23 23 24 24 24 25 26 26 27 24 16 12 14 14 15 20 23 23 22 20 21 25 28 29 29 28 27 26 25 23 22 22 23 22 20 19 19 20 19 17 15 15 16 16 14 11 11 11 12 12 11 11 10 10 11 10 10 9 7
14 15 15 15 15 15 15 16 16 16 16 15 15 15 15 16 16 16 17 17 17 18 18 18 19 20 21 22 22 22 22 24 25 26 26 24 20 14 14 15 14 16 18 19 21 23 23 23 24 24 26 29 29 27 25 24 23 23 23 23 23 22 21 21 20 20 20 19 19 17 15 14 13 12 13 13 13 12 12 11 11 11 10 9 6
15 16 16 16 16 17 18 18 18 18 18 17 17 16 16 17 17 17 17 18 18 18 19 19 19 18 18 19 21 22 22 22 23 24 23 21 19 17 14 14 15 16 17 16 18 21 22 23 24 23 23 27 30 31 29 26 24 25 25 25 25 25 24 23 23 24 23 21 20 19 18 16 14 12 13 14 14 14 14 13 12 12 10 9 8
16 17 17 17 17 18 19 19 18 19 20 19 18 18 18 18 18 18 19 21 21 21 20 20 19 17 16 18 21 22 22 20 20 22 23 21 19 17 14 13 15 17 17 16 16 18 19 19 21 21 22 26 29 30 31 30 26 25 26 26 27 27 27 26 26 26 25 24 23 22 20 18 16 15 15 16 16 17 17 16 14 13 11 11 11
16 17 17 18 18 20 21 20 19 19 20 19 19 20 19 19 18 18 20 22 23 24 23 20 20 18 17 19 22 21 19 19 20 20 21 21 22 22 19 16 16 17 18 16 15 16 17 18 19 19 22 27 28 26 29 30 27 24 24 26 27 27 28 28 27 26 26 26 25 24 23 22 20 19 17 17 18 18 18 18 17 15 13 12 12
18 18 18 20 22 22 23 22 21 21 21 20 21 22 21 20 19 19 19 20 21 22 22 20 20 20 19 20 22 20 18 19 20 19 19 20 22 24 24 23 20 18 19 20 17 15 14 16 20 21 22 24 24 24 27 28 24 22 24 25 26 26 25 26 26 26 27 27 26 26 25 24 23 22 20 19 19 20 19 19 19 18 16 15 14
19 18 20 24 26 26 26 25 24 24 23 24 25 26 23 21 21 20 20 20 21 21 20 19 20 20 20 20 22 21 20 20 20 19 20 20 20 21 23 25 25 23 20 19 19 17 15 16 19 21 20 21 21 23 26 24 20 20 23 24 25 26 26 24 24 26 28 28 28 27 27 26 24 23 22 21 20 20 20 20 20 20 19 18 17
Wind_Direction
170 174 174 177 178 170 158 151 147 142 145 146 145 143 142 143 138 128 112 92 82 85 94 103 102 82 71 60 55 61 58 51 49 52 57 62 66 63 59 55 49 43 38 35 34 36 38 37 35 32 34 34 30 29 21 16 16 2 354 357 353 330 290 289 277 221 249 254 252 252 255 287 307 7 347 350 357 267 245 240 247 259 279 309 340
167 170 173 179 178 172 169 166 159 148 152 157 154 150 147 146 141 132 115 93 86 92 91 87 88 82 77 77 79 77 70 63 55 54 56 60 68 72 65 58 50 45 39 35 32 31 29 26 30 31 26 24 23 21 16 10 8 4 5 6 354 332 306 295 288 236 246 252 252 239 198 185 49 73 50 6 315 282 264 262 265 282 340 37 55
175 173 174 181 177 173 175 176 171 156 162 170 164 155 147 144 142 135 116 100 87 81 75 66 60 57 58 67 75 68 60 62 60 58 56 56 60 65 63 56 46 42 39 37 32 26 25 21 21 27 24 22 21 19 16 10 5 4 2 359 8 7 334 304 275 247 264 264 246 239 222 206 188 154 113 52 20 13 61 68 59 62 53 62 64
183 179 179 183 182 182 182 181 180 169 164 179 179 162 148 147 143 131 117 109 102 86 75 63 51 48 48 56 66 62 53 56 59 58 58 56 55 56 55 49 42 40 39 35 32 26 23 20 17 20 25 24 21 19 16 15 9 9 5 355 6 28 6 329 301 257 273 281 256 252 245 238 216 151 120 69 54 62 77 90 88 77 71 73 67
186 186 185 186 188 192 193 189 189 184 171 176 188 174 153 147 140 125 112 105 103 93 77 65 55 47 43 50 59 59 55 60 63 57 58 57 54 51 51 48 41 40 42 34 28 26 22 24 20 15 21 25 26 24 17 19 16 12 9 0 1 7 3 351 335 291 275 276 274 278 260 254 256 150 139 101 74 75 81 88 90 88 83 80 72
189 188 188 193 195 197 200 198 197 193 184 179 186 182 165 160 159 145 121 103 94 95 85 70 62 49 44 50 63 69 69 72 72 67 63 56 50 48 45 44 40 36 38 33 24 15 10 18 17 16 20 22 30 28 21 23 22 17 16 12 5 358 3 3 349 339 297 271 277 293 280 266 286 262 170 136 102 94 96 95 90 90 82 72 71
193 191 190 196 201 199 199 201 201 201 196 188 188 187 183 181 187 194 178 135 90 91 105 98 88 64 49 55 70 86 89 64 58 66 65 52 48 47 35 32 33 33 31 29 22 13 10 13 11 23 23 19 23 22 24 30 23 20 26 22 14 9 13 9 357 357 330 297 293 294 295 281 283 283 242 172 135 124 116 112 100 86 78 66 65
199 198 195 197 204 206 201 199 199 204 206 198 194 193 194 196 196 207 212 204 172 91 131 149 135 100 55 49 57 69 68 47 46 53 56 53 48 46 40 25 21 28 28 26 22 16 19 19 9 21 23 19 27 23 21 28 23 20 24 28 28 25 19 11 3 0 359 2 346 316 322 307 295 287 260 233 165 140 127 126 118 100 86 72 67
211 208 202 195 206 214 206 199 193 200 210 206 200 201 205 208 205 209 214 218 234 249 173 182 175 160 50 38 44 51 49 43 41 39 44 52 46 38 34 17 7 16 17 20 26 20 20 22 9 8 8 14 24 24 19 20 23 24 23 29 32 33 28 19 10 359 6 29 21 354 350 336 320 318 300 279 217 165 150 149 137 119 96 79 75
219 217 209 196 210 220 211 202 192 195 209 211 206 209 214 218 217 215 214 219 235 252 240 219 207 213 280 11 24 33 38 40 34 25 33 51 54 32 19 8 7 8 3 9 22 19 13 20 10 351 349 356 2 9 15 13 16 20 21 27 29 33 36 27 22 4 0 25 37 25 4 358 340 329 338 302 253 184 165 165 153 135 111 94 89
216 217 214 204 215 224 217 209 199 197 204 209 211 213 220 230 230 227 223 223 234 250 257 247 231 229 256 313 348 13 22 28 26 18 28 46 65 28 8 4 1 1 3 2 4 11 21 21 11 347 333 328 339 357 10 8 7 8 12 19 23 31 34 35 36 12 5 23 37 48 29 20 359 333 338 306 282 168 162 163 154 142 119 105 101
204 211 211 212 221 228 225 216 208 205 204 206 212 215 219 228 232 232 232 232 235 247 261 263 251 240 249 280 304 343 358 11 20 3 23 52 105 10 2 7 0 352 3 358 348 2 53 78 27 2 322 294 301 347 1 1 5 3 3 8 13 21 24 41 55 30 20 26 27 43 41 37 30 1 357 306 297 132 161 169 160 146 122 112 110
180 200 209 216 223 228 228 220 213 212 210 208 213 215 218 224 228 231 236 240 242 248 261 271 268 251 246 259 277 302 331 357 1 280 346 71 226 346 6 3 347 342 356 355 346 4 66 103 123 177 272 265 255 305 350 356 22 8 355 2 4 2 6 30 48 58 58 37 20 33 38 43 46 29 29 342 311 132 159 171 164 149 130 123 111
154 180 203 219 222 225 227 222 217 217 216 214 216 218 219 222 226 230 236 244 249 254 261 270 274 264 251 249 259 272 299 336 338 292 315 2 334 338 2 332 331 350 351 346 356 23 84 118 141 189 226 223 231 248 336 338 8 6 347 352 354 357 14 29 32 49 87 91 61 47 37 54 66 48 37 45 136 167 170 172 164 147 133 125 107
138 161 187 208 215 220 223 220 217 217 217 216 218 220 220 221 225 230 236 244 252 256 261 267 270 267 258 251 252 257 270 297 314 314 318 326 326 327 347 1 349 346 339 343 7 53 117 128 131 190 185 132 206 273 336 334 339 345 335 340 349 3 36 49 40 38 85 116 131 110 52 53 80 67 43 58 130 182 180 182 171 147 130 120 113
131 157 176 191 201 210 218 220 219 219 219 218 218 220 221 223 226 230 235 244 252 257 261 264 265 265 264 258 254 253 257 266 280 302 310 301 301 314 338 358 350 345 345 351 19 86 118 116 146 140 92 98 44 14 5 333 330 329 317 332 347 17 52 63 67 56 69 93 106 93 50 45 97 90 67 70 161 202 192 191 176 153 141 134 131
120 142 166 183 192 200 211 218 221 223 225 225 225 225 225 226 228 230 234 240 249 255 260 263 264 266 267 263 259 255 255 256 261 278 293 290 289 301 321 342 352 2 355 354 22 146 187 169 188 74 91 92 50 43 353 324 325 318 293 300 315 60 70 75 92 92 96 77 49 60 63 68 109 103 91 91 167 206 186 180 171 162 163 158 153
100 116 144 165 185 200 209 215 220 225 228 230 232 232 232 230 229 231 233 238 245 252 257 261 263 265 266 264 261 256 251 253 254 260 276 279 279 292 311 331 348 6 1 353 11 188 217 202 199 188 112 53 68 60 325 323 321 311 288 264 232 145 100 115 124 114 117 107 101 116 104 98 113 117 117 109 142 157 134 157 168 166 169 168 163
97 113 121 131 163 190 208 215 221 227 230 233 236 238 238 237 236 235 237 239 243 247 251 254 257 260 261 259 259 257 252 251 250 251 261 267 265 283 303 314 331 355 2 350 318 206 224 216 212 225 231 273 274 306 330 326 310 292 226 232 218 173 121 123 129 122 122 108 104 116 120 130 107 103 126 120 113 150 150 145 157 168 167 164 164
102 115 119 118 124 142 181 215 224 235 241 241 244 247 246 245 243 241 241 242 243 245 248 251 254 257 258 255 255 256 255 254 253 251 254 250 244 270 292 297 308 332 351 338 244 210 220 222 217 222 234 250 284 321 341 336 315 269 194 204 212 196 158 106 68 102 117 106 104 109 141 165 125 77 106 122 110 167 163 153 163 169 163 158 161
88 98 99 97 94 99 93 85 218 238 251 255 256 258 257 257 255 251 248 246 246 247 248 249 252 255 254 252 253 254 255 258 256 251 249 245 246 272 281 280 283 297 323 311 231 210 213 221 220 218 227 232 280 318 342 359 324 269 211 205 208 210 214 214 250 340 118 115 114 115 144 192 164 130 110 104 122 196 169 170 179 170 154 152 154
75 90 95 94 92 95 89 76 176 241 250 254 259 262 262 264 263 259 256 253 250 250 252 251 251 252 250 248 249 248 244 247 247 244 243 242 252 264 265 263 265 272 290 256 228 215 208 214 218 216 219 213 220 288 344 24 299 271 233 218 216 216 221 226 232 262 267 155 126 130 160 222 188 199 219 192 171 171 176 198 186 167 156 154 144
67 79 83 79 75 70 60 48 34 334 271 259 261 261 260 261 258 253 254 256 252 251 255 256 254 253 250 243 240 242 242 244 245 237 232 233 245 253 252 250 253 259 258 231 227 218 206 207 211 211 212 205 207 257 337 34 291 263 225 216 214 211 210 209 209 211 211 155 125 130 170 136 62 78 177 208 189 163 155 172 166 157 155 142 128
69 72 70 65 59 51 40 30 20 350 324 320 310 290 270 261 253 246 246 251 249 246 252 257 257 255 250 241 242 246 247 249 253 247 237 237 243 247 246 241 240 245 242 231 229 215 205 203 203 205 210 206 208 258 334 12 228 178 176 183 181 181 178 172 175 177 167 149 139 135 133 102 91 88 92 102 139 139 131 140 141 144 150 139 128
74 70 65 61 56 50 43 34 22 3 344 333 325 317 298 275 256 243 241 241 235 231 238 247 252 253 246 241 247 251 249 251 257 254 247 241 236 239 242 236 232 238 237 230 229 212 202 202 200 198 204 205 206 238 322 354 160 151 153 156 148 146 149 149 151 151 146 142 137 135 133 118 108 103 107 120 130 122 114 127 135 139 150 149 142
71 69 64 61 55 49 44 38 28 16 3 346 329 317 302 284 267 250 240 236 228 223 226 233 241 244 243 243 248 251 249 251 256 254 249 242 232 234 239 232 228 235 235 228 231 216 200 198 200 196 198 204 205 216 260 293 143 151 158 154 147 146 151 151 148 144 141 140 137 133 130 128 127 127 132 141 142 131 124 130 136 142 151 151 147
62 61 58 53 47 42 38 32 26 19 10 2 349 331 307 285 276 262 245 235 229 225 226 230 234 238 240 244 250 253 248 247 249 248 246 242 235 232 233 230 229 233 233 225 226 221 202 194 200 198 196 205 210 214 230 212 173 170 169 169 164 159 161 162 153 147 146 143 140 139 135 133 137 143 148 151 149 142 138 138 138 140 144 146 146
56 49 46 42 37 34 31 27 23 19 14 9 3 353 334 307 284 269 255 242 229 223 226 231 234 237 240 246 254 258 249 240 242 245 244 239 236 233 229 229 231 232 231 223 222 225 209 195 199 201 199 209 217 214 216 207 191 186 178 183 186 173 168 165 153 151 155 152 149 148 147 143 144 154 160 162 161 153 144 145 148 146 145 149 151
53 45 40 36 32 30 27 24 20 18 16 12 11 8 356 340 316 287 279 272 240 221 222 231 236 239 243 248 253 254 243 231 230 236 236 230 230 232 229 228 232 234 229 221 221 225 216 202 202 203 203 214 223 217 214 207 197 194 184 186 195 188 177 164 155 157 157 158 161 154 149 148 148 158 167 170 173 168 156 155 159 151 147 153 157
53 48 40 33 30 27 24 22 19 18 17 14 14 16 12 5 351 326 310 299 275 238 223 228 238 243 245 244 240 235 230 223 218 220 225 224 223 228 230 229 231 234 229 223 225 227 218 209 206 207 211 219 225 222 218 209 200 195 189 193 203 196 184 170 162 161 157 157 160 150 144 147 151 160 166 167 173 175 172 173 171 164 158 155 155
51 48 41 33 28 24 21 19 17 17 16 16 17 16 16 15 6 349 337 323 308 284 252 232 233 243 244 240 235 230 225 221 216 215 219 221 219 222 228 230 231 233 230 226 228 228 222 211 208 213 218 221 226 225 217 208 203 198 188 194 207 203 192 181 169 160 154 152 148 143 140 145 151 159 165 167 170 173 179 183 183 183 179 169 162
45 43 39 33 28 24 20 17 16 16 14 16 18 14 12 17 15 5 351 332 317 307 293 265 232 240 243 243 245 241 230 223 222 221 220 219 216 219 226 229 230 233 233 231 229 228 225 216 210 215 220 221 224 223 215 207 203 198 191 195 209 209 199 190 179 166 157 152 147 142 140 143 151 157 162 169 173 174 178 180 179 183 185 181 177
33 33 30 26 23 19 15 13 11 11 10 11 9 6 8 12 13 13 10 358 339 315 296 282 263 256 254 251 258 262 249 235 231 227 223 220 219 222 227 230 232 235 236 235 233 229 228 222 214 215 218 221 223 220 215 210 204 200 192 188 205 214 207 198 190 179 168 162 156 148 148 148 149 153 161 168 171 170 171 172 172 174 176 181 185
16 16 12 7 5 3 3 3 2 3 6 5 1 3 7 6 4 6 8 8 2 343 324 319 306 284 266 257 262 267 258 247 241 233 226 224 224 226 229 231 235 238 238 238 237 232 229 228 221 216 216 221 224 220 215 210 207 206 197 187 202 216 214 209 201 191 182 173 165 160 160 157 154 159 167 169 169 169 168 167 167 170 174 178 182
356 355 352 350 348 346 349 352 351 352 356 358 0 6 9 6 2 1 359 360 3 2 356 351 341 317 288 272 265 255 243 240 241 235 230 228 227 229 233 234 237 240 240 241 243 239 234 231 227 220 217 222 225 220 216 213 209 209 203 193 200 215 220 222 217 208 196 183 176 173 169 165 165 170 173 172 171 168 166 166 166 167 172 176 176
330 328 330 334 335 337 342 344 343 341 341 345 352 1 5 6 5 2 360 358 359 0 357 350 347 340 321 302 286 266 251 245 243 238 235 234 232 232 234 235 238 241 241 241 242 242 239 237 234 228 221 223 226 221 216 214 210 209 207 200 200 210 223 229 229 224 213 199 190 186 183 178 174 173 173 174 173 167 164 163 161 163 165 163 162
323 320 321 322 324 328 330 331 333 334 333 335 340 348 357 4 8 7 4 359 357 360 360 356 352 349 339 326 310 290 279 271 261 251 248 248 246 242 237 235 235 238 240 241 241 242 242 241 239 235 227 224 225 223 217 214 211 208 207 205 201 202 217 230 235 234 227 214 201 194 193 190 186 180 173 172 174 168 162 157 154 154 155 151 149
334 329 325 324 327 331 332 331 330 328 329 332 334 340 348 354 358 3 6 2 357 355 354 355 356 356 352 345 333 317 299 287 280 276 266 259 257 251 243 240 240 241 243 244 244 244 243 242 241 238 232 228 225 223 219 214 212 207 205 206 202 201 212 225 233 237 237 228 213 201 197 197 198 189 175 174 177 167 158 155 152 149 146 145 146
346 341 338 338 342 346 347 345 338 326 328 334 338 343 346 347 347 348 351 351 349 348 348 349 351 352 352 352 349 343 329 306 288 284 273 263 261 262 260 256 249 245 246 245 244 245 243 241 241 239 235 232 228 224 220 216 212 208 206 206 203 203 211 218 222 231 238 235 227 215 205 204 206 198 182 178 177 167 161 157 149 144 146 149 148
350 346 347 349 351 349 347 345 337 322 319 323 328 335 338 339 341 341 340 337 335 337 340 341 343 344 345 346 346 346 343 335 316 294 278 267 265 266 267 262 249 244 245 243 241 245 246 243 242 240 236 233 231 226 221 217 214 209 207 207 203 205 212 214 213 220 229 234 236 228 217 211 210 208 194 181 177 175 169 157 144 146 159 159 153
353 348 346 347 350 348 345 344 336 324 316 315 317 324 328 329 332 333 336 337 333 331 331 329 333 338 339 339 338 337 338 338 332 318 295 273 266 265 260 252 245 243 246 246 243 244 247 247 245 242 238 234 234 232 225 219 216 211 208 208 206 207 211 210 209 210 214 224 234 234 228 220 212 212 206 188 181 179 172 163 162 170 175 167 157
351 347 343 346 352 348 344 344 338 329 324 319 319 325 330 331 330 328 329 331 331 331 328 322 322 326 329 332 334 333 332 332 331 328 318 288 268 267 259 246 243 240 239 243 246 246 247 248 246 245 242 236 235 236 230 223 220 214 210 210 209 208 208 207 207 206 203 212 223 228 232 227 216 213 209 197 189 183 180 179 178 178 178 168 151
354 346 341 345 353 349 346 347 342 333 331 328 326 330 332 332 332 329 327 326 325 327 329 325 320 320 321 325 329 330 329 329 326 323 322 308 275 267 265 246 239 238 236 238 243 245 246 246 246 246 245 240 237 237 232 226 222 218 214 211 210 209 208 206 206 205 203 205 214 223 231 228 220 216 211 203 199 191 188 189 183 178 179 167 145
358 349 343 348 355 355 354 355 351 345 345 345 342 338 334 332 332 330 328 328 326 324 324 324 323 322 321 322 325 327 328 329 326 321 320 317 291 267 267 253 234 235 241 245 245 243 243 245 246 245 244 240 237 237 235 229 224 222 218 213 210 210 209 207 206 206 205 204 210 222 231 228 222 221 214 206 205 201 197 193 185 184 186 169 146
355 347 347 355 359 358 358 359 358 356 358 1 359 352 346 342 340 338 335 334 334 331 327 325 324 323 323 324 326 328 328 327 325 323 322 321 310 275 264 263 247 236 241 249 252 250 249 249 248 246 245 243 239 238 238 233 228 224 220 216 213 211 209 208 207 205 203 207 216 225 230 226 221 221 218 211 207 207 207 201 192 190 186 169 151
356 349 350 356 358 356 354 353 353 352 353 357 357 353 351 349 347 345 342 340 339 337 335 333 329 325 324 326 329 330 330 326 325 326 326 325 320 299 269 262 257 246 244 246 244 244 249 254 252 245 242 243 242 241 240 237 231 227 223 217 213 211 210 210 209 207 207 212 219 224 226 225 222 220 220 219 214 212 214 211 205 199 188 175 172
359 354 353 355 355 353 351 348 345 342 341 343 345 344 342 341 341 340 339 339 338 335 335 338 337 332 329 329 329 330 329 329 327 327 325 323 319 309 284 263 259 261 266 264 250 242 243 250 254 252 248 249 248 246 243 240 234 229 226 220 214 212 210 209 209 209 211 214 217 219 221 224 223 221 221 220 217 217 219 219 216 210 197 186 193
355 353 353 353 351 349 347 346 343 339 336 336 337 337 338 337 336 333 329 326 325 325 328 332 333 333 331 329 330 331 330 330 328 325 323 321 317 312 297 276 266 268 275 277 268 257 251 252 257 258 257 257 255 248 245 244 238 232 230 226 220 215 213 211 211 210 210 212 214 216 219 221 220 219 220 219 218 219 221 222 222 218 210 203 204
346 345 345 344 342 341 340 339 338 336 336 335 333 333 335 335 335 333 329 325 322 320 321 321 321 321 322 323 326 329 328 326 326 324 322 320 318 319 316 302 283 272 271 273 272 265 260 260 262 255 249 252 252 246 245 247 245 239 237 235 229 223 218 216 216 211 210 213 214 213 217 221 220 220 221 220 220 220 220 222 224 220 214 213 213
337 336 334 333 332 332 332 332 331 329 330 330 329 329 330 328 328 329 328 327 327 325 322 320 316 313 313 316 319 322 321 321 321 320 320 318 318 320 322 320 313 297 281 275 272 264 253 250 252 249 246 250 250 244 246 252 250 245 245 243 238 233 227 224 222 216 214 217 216 213 216 221 222 222 222 220 218 218 218 218 221 221 215 212 214
331 330 328 327 327 327 326 326 326 325 324 323 321 322 322 322 321 322 321 319 320 321 320 318 315 314 313 314 315 315 315 315 315 314 316 317 317 318 319 321 323 320 308 290 277 268 257 246 247 247 246 248 246 241 244 249 246 240 242 243 240 236 231 229 226 221 218 218 216 214 216 220 222 222 222 219 216 217 217 215 218 222 220 215 215